• In France
  • List of Countries
  • For 7 days
  • Water Temperature
  • Satellite Maps
  • Weather Map
  • Weather Widgets
  • user-avatar
    Login

    Hourly Weather Newcastle

    Today, 18 October, Thursday

    Time Temperature Precipitation Wind Pressure Humidity
    00:00 +18°C° 0.1 mm 4 mps 761 mmHg 97%
    01:00 +17°C° 0.1 mm 5 mps 761 mmHg 97%
    02:00 +16°C° 0 mm 5 mps 761 mmHg 97%
    03:00 +16°C° 0 mm 5 mps 761 mmHg 96%
    04:00 +17°C° 0 mm 4 mps 761 mmHg 96%
    05:00 +18°C° 0 mm 4 mps 761 mmHg 94%
    06:00 +19°C° 0 mm 4 mps 762 mmHg 91%
    07:00 +20°C° 0 mm 4 mps 762 mmHg 88%
    08:00 +20°C° 0.1 mm 4 mps 762 mmHg 85%
    09:00 +21°C° 0.1 mm 3 mps 762 mmHg 82%
    10:00 +26°C° 0 mm 3 mps 762 mmHg 72%
    11:00 +26°C° 1.4 mm 4 mps 762 mmHg 73%
    12:00 +26°C° 1.4 mm 4 mps 762 mmHg 75%
    13:00 +27°C° 1.4 mm 5 mps 761 mmHg 76%
    14:00 +26°C° 1 mm 5 mps 761 mmHg 79%
    15:00 +24°C° 1 mm 6 mps 761 mmHg 83%
    16:00 +23°C° 0 mm 7 mps 761 mmHg 85%
    17:00 +22°C° 0.3 mm 6 mps 761 mmHg 88%
    18:00 +21°C° 0.3 mm 6 mps 762 mmHg 90%
    19:00 +20°C° 0.3 mm 6 mps 762 mmHg 93%
    20:00 +19°C° 0 mm 5 mps 763 mmHg 94%
    21:00 +19°C° 0 mm 5 mps 763 mmHg 95%
    22:00 +18°C° 0 mm 3 mps 763 mmHg 98%
    23:00 +18°C° 0 mm 3 mps 763 mmHg 98%

    Tomorrow, 19 October, Friday

    Time Temperature Precipitation Wind Pressure Humidity
    00:00 +18°C° 0 mm 3 mps 762 mmHg 98%
    01:00 +17°C° 0 mm 4 mps 762 mmHg 98%
    02:00 +17°C° 0 mm 3 mps 762 mmHg 98%
    03:00 +17°C° 0 mm 3 mps 762 mmHg 97%
    04:00 +17°C° 0 mm 3 mps 762 mmHg 97%
    05:00 +18°C° 0 mm 3 mps 762 mmHg 94%
    06:00 +19°C° 0 mm 3 mps 763 mmHg 91%
    07:00 +20°C° 0 mm 3 mps 763 mmHg 88%
    08:00 +24°C° 0 mm 2 mps 763 mmHg 76%
    09:00 +27°C° 0 mm 2 mps 763 mmHg 64%
    10:00 +29°C° 0 mm 2 mps 762 mmHg 51%
    11:00 +30°C° 0.1 mm 2 mps 762 mmHg 49%
    12:00 +31°C° 0.1 mm 3 mps 761 mmHg 46%
    13:00 +33°C° 0.1 mm 4 mps 761 mmHg 43%
    14:00 +32°C° 0 mm 4 mps 761 mmHg 47%
    15:00 +30°C° 0 mm 5 mps 760 mmHg 50%
    16:00 +29°C° 0 mm 5 mps 760 mmHg 53%
    17:00 +27°C° 0 mm 5 mps 760 mmHg 62%
    18:00 +24°C° 0 mm 6 mps 760 mmHg 71%
    19:00 +22°C° 0 mm 6 mps 761 mmHg 80%
    20:00 +21°C° 0 mm 5 mps 761 mmHg 83%
    21:00 +21°C° 0 mm 5 mps 761 mmHg 86%
    22:00 +20°C° 0 mm 5 mps 762 mmHg 88%
    23:00 +19°C° 0 mm 5 mps 761 mmHg 89%

    Day after tomorrow, 20 October, Saturday

    Time Temperature Precipitation Wind Pressure Humidity
    00:00 +19°C° 0 mm 4 mps 761 mmHg 90%
    01:00 +18°C° 0 mm 4 mps 761 mmHg 92%
    02:00 +18°C° 0 mm 4 mps 760 mmHg 91%
    03:00 +18°C° 0 mm 4 mps 760 mmHg 90%
    04:00 +18°C° 0 mm 4 mps 760 mmHg 89%
    05:00 +19°C° 0 mm 3 mps 760 mmHg 83%
    06:00 +20°C° 0 mm 3 mps 760 mmHg 77%
    07:00 +22°C° 0 mm 3 mps 760 mmHg 71%
    08:00 +25°C° 0 mm 3 mps 760 mmHg 62%
    09:00 +28°C° 0 mm 3 mps 760 mmHg 53%
    10:00 +31°C° 0 mm 3 mps 760 mmHg 44%
    11:00 +33°C° 0 mm 4 mps 759 mmHg 41%
    12:00 +34°C° 0 mm 4 mps 759 mmHg 38%
    13:00 +35°C° 0 mm 4 mps 758 mmHg 35%
    14:00 +34°C° 0 mm 5 mps 757 mmHg 40%
    15:00 +33°C° 0 mm 6 mps 757 mmHg 44%
    16:00 +32°C° 0 mm 7 mps 756 mmHg 48%
    17:00 +28°C° 1.5 mm 6 mps 757 mmHg 63%
    18:00 +25°C° 1.5 mm 5 mps 757 mmHg 78%
    19:00 +21°C° 1.5 mm 5 mps 757 mmHg 93%
    20:00 +21°C° 1.5 mm 4 mps 758 mmHg 94%
    21:00 +21°C° 1.5 mm 4 mps 758 mmHg 95%
    22:00 +21°C° 1.5 mm 4 mps 758 mmHg 96%
    23:00 +20°C° 1.9 mm 3 mps 758 mmHg 96%

    21 October, Sunday

    Time Temperature Precipitation Wind Pressure Humidity
    00:00 +20°C° 1.9 mm 3 mps 757 mmHg 97%
    01:00 +20°C° 1.9 mm 3 mps 757 mmHg 97%
    02:00 +19°C° 0.9 mm 3 mps 757 mmHg 97%
    03:00 +19°C° 0.9 mm 3 mps 756 mmHg 97%
    04:00 +19°C° 0.9 mm 3 mps 756 mmHg 97%
    05:00 +19°C° 0.2 mm 4 mps 757 mmHg 95%
    06:00 +19°C° 0.2 mm 4 mps 757 mmHg 93%
    07:00 +19°C° 0.2 mm 5 mps 757 mmHg 91%
    08:00 +20°C° 0 mm 5 mps 757 mmHg 77%
    09:00 +22°C° 0 mm 5 mps 757 mmHg 63%
    10:00 +25°C° 0 mm 5 mps 757 mmHg 49%
    11:00 +25°C° 0 mm 5 mps 757 mmHg 45%
    12:00 +26°C° 0 mm 4 mps 757 mmHg 41%
    13:00 +27°C° 0 mm 4 mps 757 mmHg 37%
    14:00 +26°C° 0.1 mm 4 mps 757 mmHg 43%
    15:00 +25°C° 0.1 mm 4 mps 756 mmHg 49%
    16:00 +23°C° 0.1 mm 4 mps 756 mmHg 55%
    17:00 +21°C° 0.1 mm 4 mps 757 mmHg 65%
    18:00 +19°C° 0.1 mm 3 mps 758 mmHg 76%
    19:00 +17°C° 0.1 mm 3 mps 758 mmHg 87%
    20:00 +16°C° 0 mm 2 mps 759 mmHg 90%
    21:00 +16°C° 0 mm 2 mps 759 mmHg 93%
    22:00 +15°C° 0 mm 1 mps 759 mmHg 96%
    23:00 +15°C° 0 mm 1 mps 759 mmHg 96%

    22 October, Monday

    Time Temperature Precipitation Wind Pressure Humidity
    00:00 +15°C° 0 mm 1 mps 758 mmHg 97%
    01:00 +15°C° 0 mm 1 mps 758 mmHg 97%
    02:00 +14°C° 0 mm 1 mps 758 mmHg 96%
    03:00 +14°C° 0 mm 2 mps 758 mmHg 95%
    04:00 +14°C° 0 mm 2 mps 758 mmHg 94%
    05:00 +15°C° 0 mm 2 mps 758 mmHg 89%
    06:00 +16°C° 0 mm 3 mps 759 mmHg 84%
    07:00 +17°C° 0 mm 3 mps 759 mmHg 80%
    08:00 +19°C° 0 mm 3 mps 759 mmHg 69%
    09:00 +22°C° 0 mm 3 mps 758 mmHg 59%
    10:00 +26°C° 0 mm 3 mps 758 mmHg 49%
    11:00 +27°C° 0 mm 3 mps 758 mmHg 46%
    12:00 +28°C° 0 mm 3 mps 757 mmHg 43%
    13:00 +29°C° 0 mm 3 mps 757 mmHg 40%
    14:00 +29°C° 0 mm 3 mps 756 mmHg 41%
    15:00 +29°C° 0 mm 4 mps 756 mmHg 43%
    16:00 +29°C° 0 mm 4 mps 756 mmHg 44%
    17:00 +26°C° 0 mm 4 mps 757 mmHg 51%
    18:00 +23°C° 0 mm 5 mps 757 mmHg 58%
    19:00 +20°C° 0 mm 5 mps 758 mmHg 66%
    20:00 +19°C° 0 mm 4 mps 758 mmHg 68%
    21:00 +18°C° 0 mm 4 mps 758 mmHg 71%
    22:00 +17°C° 0 mm 3 mps 759 mmHg 74%
    23:00 +17°C° 0 mm 3 mps 759 mmHg 73%

    23 October, Tuesday

    Time Temperature Precipitation Wind Pressure Humidity
    00:00 +16°C° 0 mm 3 mps 758 mmHg 73%
    01:00 +16°C° 0 mm 2 mps 758 mmHg 72%
    02:00 +16°C° 0 mm 2 mps 758 mmHg 71%
    03:00 +15°C° 0 mm 2 mps 758 mmHg 70%
    04:00 +15°C° 0 mm 2 mps 758 mmHg 69%
    05:00 +17°C° 0 mm 3 mps 759 mmHg 65%
    06:00 +18°C° 0 mm 3 mps 759 mmHg 61%
    07:00 +20°C° 0 mm 3 mps 759 mmHg 58%
    08:00 +24°C° 0 mm 3 mps 759 mmHg 49%
    09:00 +27°C° 0 mm 3 mps 759 mmHg 40%
    10:00 +30°C° 0 mm 3 mps 758 mmHg 32%
    11:00 +31°C° 0 mm 3 mps 758 mmHg 29%
    12:00 +33°C° 0 mm 3 mps 757 mmHg 25%
    13:00 +34°C° 0 mm 3 mps 756 mmHg 22%
    14:00 +34°C° 0 mm 4 mps 756 mmHg 25%
    15:00 +34°C° 0 mm 4 mps 756 mmHg 28%
    16:00 +34°C° 0 mm 4 mps 755 mmHg 31%
    17:00 +30°C° 0 mm 4 mps 756 mmHg 39%
    18:00 +27°C° 0 mm 4 mps 756 mmHg 47%
    19:00 +23°C° 0 mm 4 mps 757 mmHg 55%
    20:00 +22°C° 0 mm 4 mps 757 mmHg 57%
    21:00 +21°C° 0 mm 3 mps 757 mmHg 59%
    22:00 +21°C° 0 mm 2 mps 757 mmHg 61%
    23:00 +20°C° 0 mm 4 mps 758 mmHg 61%
    Show more